Location: Charlottesville
(38.0290°N, 78.4770°W)
Time: 18:25:30
(UTC-04:00)

Vanguard 3 - All Passes

Search period start: 22 July 2018 00:00
Search period end: 01 August 2018 00:00
Orbit: 508 x 3264 km, 33.3° (Epoch: 22 July)

Date Brightness Start Highest point End Pass type
(mag) Time Alt. Az. Time Alt. Az. Time Alt. Az.
22 Jul - 00:38:59 10° WSW 00:40:59 12° SW 00:42:45 10° SSW visible
22 Jul - 14:21:55 10° S 14:33:54 20° SE 14:44:15 10° ESE daylight
22 Jul - 16:31:39 10° SW 16:48:45 44° SSE 17:00:22 10° E daylight
22 Jul - 18:47:15 10° WSW 19:03:19 65° S 19:12:28 10° E daylight
22 Jul - 21:04:39 10° W 21:16:39 63° SSW 21:23:15 10° ESE visible
22 Jul - 23:21:27 10° W 23:28:02 27° SW 23:32:25 10° SSE visible
23 Jul - 13:14:16 10° SSE 13:18:14 11° SE 13:22:05 10° ESE daylight
23 Jul - 15:16:35 10° SSW 15:32:51 34° SSE 15:45:26 10° E daylight
23 Jul - 17:30:11 10° SW 17:47:52 58° SSE 17:58:50 10° E daylight
23 Jul - 19:47:19 10° W 20:02:07 70° S 20:10:15 10° E daylight
23 Jul - 22:04:41 10° W 22:14:39 46° SSW 22:20:24 10° SE visible
24 Jul - 00:23:33 10° WSW 00:24:55 11° SW 00:26:12 10° SSW visible
24 Jul - 14:03:10 10° S 14:16:58 24° SE 14:29:04 10° E daylight
24 Jul - 16:13:51 10° SW 16:31:59 49° SSE 16:44:40 10° E daylight
24 Jul - 18:29:49 10° WSW 18:46:57 69° S 18:56:53 10° E daylight
24 Jul - 20:47:33 10° W 21:00:36 63° SSW 21:07:47 10° ESE visible
24 Jul - 23:04:55 10° W 23:12:00 26° SW 23:16:42 10° SSE visible
25 Jul - 12:52:53 10° SSE 13:01:18 14° SE 13:09:25 10° ESE daylight
25 Jul - 14:58:37 10° SSW 15:15:53 39° SSE 15:29:42 10° E daylight
25 Jul - 17:12:37 10° WSW 17:31:14 63° SSE 17:43:08 10° E daylight
25 Jul - 19:30:01 10° W 19:45:52 71° S 19:54:43 10° ESE daylight
25 Jul - 21:47:46 10° W 21:58:35 45° SSW 22:04:51 10° SE visible
26 Jul - 13:44:54 10° S 13:59:53 28° SE 14:13:28 10° E daylight
26 Jul - 15:56:12 10° SW 16:15:05 54° SSE 16:28:50 10° E daylight
26 Jul - 18:12:24 10° WSW 18:30:28 72° S 18:41:15 10° E daylight
26 Jul - 20:30:22 10° W 20:44:26 61° SSW 20:52:14 10° ESE daylight
26 Jul - 22:48:20 10° W 22:55:52 24° SW 23:00:55 10° SSE visible
27 Jul - 12:33:35 10° SSE 12:44:13 17° SE 12:54:45 10° E daylight
27 Jul - 14:40:54 10° SSW 14:58:48 43° SSE 15:13:46 10° E daylight
27 Jul - 16:55:10 10° WSW 17:14:28 67° SSE 17:27:20 10° E daylight
27 Jul - 19:12:42 10° W 19:29:32 71° S 19:39:08 10° ESE daylight
27 Jul - 21:30:45 10° W 21:42:25 43° SSW 21:49:13 10° SE visible
28 Jul - 13:27:01 10° SSW 13:42:42 32° SE 13:57:34 10° E daylight
28 Jul - 15:38:45 10° SW 15:58:05 58° SSE 16:12:52 10° E daylight
28 Jul - 17:55:03 10° WSW 18:13:53 73° S 18:25:32 10° E daylight
28 Jul - 20:13:08 10° W 20:28:10 60° SSW 20:36:39 10° ESE daylight
28 Jul - 22:31:39 10° W 22:39:37 23° SW 22:45:01 10° S visible
29 Jul - 12:15:07 10° S 12:27:03 21° SE 12:39:19 10° E daylight
29 Jul - 14:23:26 10° SW 14:41:37 48° SSE 14:57:40 10° E daylight
29 Jul - 16:37:51 10° WSW 16:57:37 70° S 17:11:27 10° E daylight
29 Jul - 18:55:23 10° W 19:13:04 71° S 19:23:28 10° ESE daylight
29 Jul - 21:13:40 10° W 21:26:06 41° SSW 21:33:29 10° SSE visible
30 Jul - 13:09:27 10° SSW 13:25:26 36° SE 13:41:24 10° E daylight
30 Jul - 15:21:28 10° SW 15:41:00 63° SSE 15:56:47 10° E daylight
30 Jul - 17:37:45 10° W 17:57:11 75° S 18:09:45 10° E daylight
30 Jul - 19:55:52 10° W 20:11:45 58° SSW 20:20:57 10° SE daylight
30 Jul - 22:14:57 10° W 22:23:14 22° SW 22:29:00 10° S visible
31 Jul - 11:57:12 10° S 12:09:48 24° SE 12:23:25 10° E daylight
31 Jul - 14:06:11 10° SW 14:24:21 52° SSE 14:41:23 10° E daylight
31 Jul - 16:20:38 10° WSW 16:40:40 73° S 16:55:27 10° E daylight
31 Jul - 18:38:05 10° W 18:56:29 70° SSW 19:07:43 10° ESE daylight
31 Jul - 20:56:32 10° W 21:09:39 39° SW 21:17:40 10° SSE visible
